Location: Burgberg
(50.1428°N, 11.0671°E)
Time: 11:54:45
(UTC+00:00)

Cosmos 1953 Rocket - Pass Details

Date: 26 January 2020
Orbit: 604 x 635 km, 82.5° (Epoch: 16 February)

Event Time Altitude Azimuth Distance (km) Brightness Sun altitude
Exits shadow 04:37:11 64° 229° (SW) 687 3.5 -22.4°
Drops below altitude 10° 04:41:08 10° 181° (S) 1,969 6.2 -21.8°
Sets 04:43:21 0° 179° (S) 2,864 7.0 -21.5°
